Location: Gwatt
(46.7204°N, 7.6223°E)
Time: 01:23:43
(UTC+00:00)

Transit 2A - Pass Details

Date: 27 January 2021
Orbit: 601 x 958 km, 66.7° (Epoch: 07 March)

Event Time Altitude Azimuth Distance (km) Brightness Sun altitude
Rises 02:25:10 0° 201° (SSW) 3,501 - -46.3°
Reaches altitude 10° 02:27:46 10° 198° (SSW) 2,520 - -45.9°
Maximum altitude 02:33:30 62° 119° (ESE) 916 - -45.0°
Drops below altitude 10° 02:38:44 10° 40° (NE) 2,298 - -44.2°
Exits shadow 02:39:01 - 39° (NE) 2,405 9.1 -44.1°
Sets 02:41:01 0° 37° (NE) 3,171 9.8 -43.8°
